sat.trackr.live / text

‹ back to catalog

CENTAURI-9

NORAD 69924 · 2026-156BH

PAYLOAD ACTIVE UNKNOWN

§ Identity

Operator
Country
AUS
Launch date
2026-07-07
Launch site
AFWTR
Launch vehicle
Mass (kg)
RCS (m²)

External: N2YO · Heavens-Above · Gunter

§ Orbital elements

Epoch: 2026-09-19T23:27:59.033376Z

Period
96.50 min
Inclination
97.7437°
Eccentricity
0.0006719
Mean motion
14.92220622 rev/d
Perigee alt
586.3 km
Apogee alt
595.7 km
Semi-major
6,969.2 km
B*
5.1551e-5
RAAN
162.2121°
Arg perigee
265.5020°
Mean anomaly
94.5432°
Rev number
1,113

§ Raw data

CENTAURI-91 69924U 26156BH  26262.97776659  .00000470  00000+0  51551-4 0  99952 69924  97.7437 162.2121 0006719 265.5020  94.5432 14.92220622 11130

JSON: /api/v1/satellites/69924 · /tle

For live sub-satellite position, see the globe view (requires WebGL).

§ Visibility from observer

Set your observer location to see the next 7 days of passes ≥ 10°. The values pass through the URL so the page stays shareable.

No JS? Fill the form by hand. The geolocation button needs JavaScript.